{"data":{"norad_id":64126,"intl_designator":"2025-111D","name":"STARLINK-11717 [DTC]","alt_names":[],"object_type":"PAYLOAD","status":"ACTIVE","operator":null,"country":"US","launch_date":"2025-05-24","launch_site_code":"AFETR","launch_vehicle":null,"mission":null,"orbit_class":"UNKNOWN","rcs_meters":null,"size_class":null,"mass_kg":null,"dimensions":null,"purposes":["comms"],"wikipedia_slug":null,"has_3d_model":false,"image_url":null,"decayed_at":null,"tle_current":{"epoch":"2026-05-24T23:12:24.467904Z","epoch_age_seconds":88602,"freshness":"FRESH","line1":"1 64126U 25111D   26144.96694986  .00158497  00000+0  12137-2 0  9992","line2":"2 64126  42.9976 234.2465 0000951  45.9452 314.1494 15.70872233 58588","mean_motion":15.70872233,"eccentricity":9.51e-5,"inclination_deg":42.9976,"raan_deg":234.2465,"arg_perigee_deg":45.9452,"mean_anomaly_deg":314.1494,"bstar":0.0012137,"rev_number":5858,"period_min":91.668817472821,"perigee_km":355.76248044955,"apogee_km":357.04338994522,"semimajor_km":6734.5399351974,"source":"CELESTRAK","updated_at":"2026-05-25T13:38:20.271416Z"}}}